Location: Unspecified
(0.0000°N, 0.0000°E)
Time: 18:38:18
(UTC+00:00)

Picosat 4 - Visible Passes

Search period start: 18 May 2026 00:00
Search period end: 28 May 2026 00:00
Orbit: 708 x 751 km, 100.2° (Epoch: 18 May)

Date Brightness Start Highest point End Pass type
(mag) Time Alt. Az. Time Alt. Az. Time Alt. Az.
18 May ? 19:01:55 10° S 19:06:46 57° WSW 19:11:38 10° NNW visible
19 May ? 18:15:22 10° SE 18:19:52 35° ENE 18:24:21 10° N visible
19 May ? 19:55:20 10° SW 19:57:38 13° WSW 19:59:56 10° WNW visible
20 May ? 19:05:55 10° S 19:10:44 53° WSW 19:15:35 10° NNW visible
21 May ? 18:19:16 10° SE 18:23:49 37° ENE 18:28:24 10° N visible
21 May ? 19:59:36 10° SW 20:01:36 12° WSW 20:03:35 10° W visible
22 May ? 19:09:55 10° S 19:14:42 50° WSW 19:19:31 10° NNW visible
23 May ? 18:23:09 10° SE 18:27:47 40° ENE 18:32:25 10° N visible
23 May ? 20:03:56 10° SW 20:05:33 11° WSW 20:07:11 10° W visible
24 May ? 19:13:55 10° S 19:18:40 46° WSW 19:23:26 10° NNW visible
25 May ? 18:27:04 10° SSE 18:31:46 42° ENE 18:36:27 10° N visible
25 May ? 20:08:24 10° WSW 20:09:31 11° WSW 20:10:38 10° W visible
26 May ? 19:17:55 10° S 19:22:38 44° WSW 19:27:21 10° NNW visible
27 May ? 18:30:58 10° SSE 18:35:43 45° ENE 18:40:28 10° N visible
